YAOGAN-33

Last updated on Wed Jan 27 2021 00:02:03 GMT+0000 (Coordinated Universal Time)

1 47302U 20103A 21026.59544467 .00000046 00000-0 19592-4 0 9997 2 47302 98.2703 276.4238 0001376 103.0349 257.1010 14.59120505 4378
UTC large
Height (km)
Speed (km/s)
/
Latitude / Longitude
Inclination (degrees)
Orbital Period (minutes)
Azimuth
Elevation
Range (km)
Doppler Factor

Next 0 passes for location: London (51.5072 / 0.1276)

Sorry there are no passes over London.